London, United Kingdom

3:20 AM BST on October 18, 2017 (GMT +0100)
Heathrow

Weather History for EGLL - October, 2013

Change the Weather History Date:

Monday, October 28, 2013

  Actual Average Record
Temperature  
Mean Temperature 54 °F -  
Max Temperature 60 °F 51 °F 65 °F (2014)
Min Temperature 48 °F 39 °F 32 °F (2003)
Degree Days  
Heating Degree Days 11    
Growing Degree Days 4 (Base 50)    
Moisture  
Dew Point 48 °F    
Average Humidity 79    
Maximum Humidity 94    
Minimum Humidity 49    
Precipitation  
Precipitation 0.00 in - - ()
Sea Level Pressure  
Sea Level Pressure 29.31 in    
Wind  
Wind Speed 17 mph ()    
Max Wind Speed 47 mph    
Max Gust Speed 59 mph    
Visibility 6.6 miles    
Events Rain    
Averages and records for this station are not official NWS values.
T = Trace of Precipitation, MM = Missing Value Source: Averaged Metar Reports

Daily Weather History Graph

Daily Weather History Graph

Search for Another Location

Airport or City:

Trip Planner

Search our weather history database for the weather conditions in past years. The results will help you decide how hot, cold, wet, or windy it might be!

Date:

Astronomy

Oct. 28, 2013 Rise Set
Actual Time 6:48 AM GMT 4:41 PM GMT
Civil Twilight 6:13 AM GMT 5:16 PM GMT
Nautical Twilight 5:34 AM GMT 5:55 PM GMT
Astronomical Twilight 4:55 AM GMT 6:34 PM GMT
Moon No Moon Rise 1:53 PM GMT (10/28)
Length of Visible Light 11h 03m
Length of Day
9h 53m
Waning Crescent, 36% of the Moon is Illuminated
Oct 28
Waning Crescent
Nov 3
New
Nov 10
First Quarter
Nov 17
Full
Nov 25
Last Quarter

Hourly Weather History & Observations

Time (GMT) Temp. Dew Point Humidity Pressure Visibility Wind Dir Wind Speed Gust Speed Precip Events Conditions
12:00 AM 56 °F 54 °F 93% 29.24 in 5 mi South 9.2 mph - - Rain Light Rain
12:20 AM 57.2 °F 55.4 °F 94% 29.18 in 4.3 mi South 8.1 mph - N/A Rain Heavy Rain
12:50 AM 57.2 °F 55.4 °F 94% 29.12 in 4.3 mi SSE 10.4 mph - N/A Rain Heavy Rain
1:20 AM 57.2 °F 55.4 °F 94% 29.12 in 4.3 mi South 13.8 mph - N/A Rain Rain
1:50 AM 60.8 °F 59.0 °F 94% 29.09 in 6.2 mi SW 17.3 mph - N/A Rain Light Rain
2:20 AM 60.8 °F 59.0 °F 94% 29.06 in 5.0 mi SSW 19.6 mph 32.2 mph N/A Rain Rain
2:50 AM 60.8 °F 59.0 °F 94% 29.03 in 3.7 mi SW 19.6 mph 31.1 mph N/A Rain Rain
3:00 AM 61 °F 59 °F 91% 29.05 in 3 mi SSW 25.3 mph - - Rain Rain
3:20 AM 60.8 °F 59.0 °F 94% 29.00 in 6.2 mi SSW 20.7 mph - N/A Rain Rain
3:50 AM 60.8 °F 57.2 °F 88% 29.00 in 6.2 mi SSW 20.7 mph 33.4 mph N/A Rain Light Rain
4:20 AM 60.8 °F 57.2 °F 88% 28.97 in 5.6 mi SW 24.2 mph 36.8 mph N/A Rain Light Rain
4:50 AM 60.8 °F 57.2 °F 88% 28.94 in 6.2 mi SW 23.0 mph 36.8 mph N/A   Scattered Clouds
5:20 AM 60.8 °F 57.2 °F 88% 28.91 in 6.2 mi SSW 24.2 mph 38.0 mph N/A   Scattered Clouds
5:50 AM 60.8 °F 55.4 °F 82% 28.88 in 6.2 mi SSW 26.5 mph 41.4 mph N/A   Mostly Cloudy
6:00 AM 60 °F 55 °F 78% 28.90 in 14 mi SSW 29.9 mph - - Rain Rain
6:20 AM 57.2 °F 51.8 °F 82% 28.91 in 6.2 mi WSW 47.2 mph 58.7 mph N/A   Mostly Cloudy
6:50 AM 55.4 °F 48.2 °F 77% 29.03 in 6.2 mi West 39.1 mph 51.8 mph N/A   Mostly Cloudy
7:20 AM 55.4 °F 50.0 °F 82% 29.09 in 5.6 mi West 33.4 mph 44.9 mph N/A Rain Light Rain Showers
7:50 AM 53.6 °F 48.2 °F 82% 29.18 in 6.2 mi West 29.9 mph 41.4 mph N/A   Mostly Cloudy
8:20 AM 53.6 °F 46.4 °F 77% 29.21 in 6.2 mi West 27.6 mph - N/A   Scattered Clouds
8:50 AM 53.6 °F 44.6 °F 72% 29.24 in 6.2 mi West 27.6 mph - N/A   Partly Cloudy
9:00 AM 54 °F 45 °F 62% 29.25 in 34 mi West 24.2 mph - - Rain Drizzle
9:20 AM 55.4 °F 44.6 °F 67% 29.27 in 6.2 mi WSW 25.3 mph - N/A   Mostly Cloudy
9:50 AM 53.6 °F 46.4 °F 77% 29.30 in 6.2 mi WSW 20.7 mph - N/A   Scattered Clouds
10:20 AM 55.4 °F 46.4 °F 72% 29.30 in 6.2 mi WSW 17.3 mph - N/A   Scattered Clouds
10:50 AM 55.4 °F 46.4 °F 72% 29.33 in 6.2 mi WSW 21.9 mph - N/A   Scattered Clouds
11:20 AM 57.2 °F 44.6 °F 63% 29.36 in 6.2 mi WSW 23.0 mph 34.5 mph N/A   Scattered Clouds
11:50 AM 57.2 °F 44.6 °F 63% 29.36 in 6.2 mi WSW 25.3 mph - N/A   Scattered Clouds
12:00 PM 58 °F 44 °F 49% 29.37 in 28 mi WSW 25.3 mph - -  
12:20 PM 57.2 °F 44.6 °F 63% 29.36 in 6.2 mi WSW 21.9 mph - N/A   Scattered Clouds
12:50 PM 57.2 °F 44.6 °F 63% 29.39 in 6.2 mi WSW 20.7 mph 32.2 mph N/A   Scattered Clouds
1:20 PM 59.0 °F 44.6 °F 59% 29.39 in 6.2 mi West 17.3 mph - N/A   Scattered Clouds
1:50 PM 55.4 °F 48.2 °F 77% 29.42 in 6.2 mi West 18.4 mph - N/A Rain Light Rain Showers
2:20 PM 55.4 °F 46.4 °F 72% 29.42 in 6.2 mi WSW 20.7 mph - N/A   Scattered Clouds
2:50 PM 55.4 °F 46.4 °F 72% 29.44 in 6.2 mi WSW 20.7 mph - N/A   Scattered Clouds
3:00 PM 54 °F 45 °F 63% 29.45 in 25 mi WSW 21.9 mph - - Rain Light Rain Showers
3:20 PM 53.6 °F 46.4 °F 77% 29.47 in 6.2 mi WSW 17.3 mph - N/A   Partly Cloudy
3:50 PM 53.6 °F 46.4 °F 77% 29.47 in 6.2 mi WSW 16.1 mph - N/A   Partly Cloudy
4:20 PM 53.6 °F 46.4 °F 77% 29.50 in 6.2 mi WSW 20.7 mph - N/A   Partly Cloudy
4:50 PM 51.8 °F 46.4 °F 82% 29.50 in 6.2 mi WSW 16.1 mph - N/A   Partly Cloudy
5:20 PM 51.8 °F 46.4 °F 82% 29.53 in 6.2 mi WSW 12.7 mph - N/A   Scattered Clouds
5:50 PM 50.0 °F 42.8 °F 76% 29.53 in 6.2 mi West 15.0 mph - N/A Rain Light Rain Showers
6:00 PM 49 °F 43 °F 74% 29.54 in 19 mi West 13.8 mph - - Rain Light Rain Showers
6:20 PM 48.2 °F 42.8 °F 82% 29.53 in 6.2 mi SW 9.2 mph - N/A   Partly Cloudy
6:50 PM 48.2 °F 44.6 °F 87% 29.53 in 6.2 mi SW 10.4 mph - N/A   Scattered Clouds
7:20 PM 48.2 °F 44.6 °F 87% 29.56 in 6.2 mi SW 11.5 mph - N/A   Partly Cloudy
7:50 PM 48.2 °F 44.6 °F 87% 29.56 in - SW 11.5 mph - N/A   Clear
8:20 PM 48.2 °F 44.6 °F 87% 29.56 in - SW 10.4 mph - N/A   Clear
8:50 PM 48.2 °F 44.6 °F 87% 29.56 in - SW 11.5 mph - N/A   Clear
9:00 PM 48 °F 43 °F 77% 29.57 in 18 mi SSW 11.5 mph - -  
9:20 PM 48.2 °F 42.8 °F 82% 29.56 in - SW 11.5 mph - N/A   Clear
9:50 PM 48.2 °F 42.8 °F 82% 29.56 in - SW 11.5 mph - N/A   Clear
10:20 PM 48.2 °F 42.8 °F 82% 29.59 in - WSW 13.8 mph - N/A   Clear
10:50 PM 48.2 °F 42.8 °F 82% 29.59 in - SW 15.0 mph - N/A   Clear
11:20 PM 48.2 °F 42.8 °F 82% 29.59 in - WSW 13.8 mph - N/A   Clear
11:50 PM 48.2 °F 42.8 °F 82% 29.59 in - WSW 12.7 mph - N/A   Clear